WXM80 ListenWXM80 Stop

You find our weather info also at:

UK Metoffice

WeatherCloud

Weather Underground

Northeastern Weather Network

AWEKAS

Citizen Weather Observer Program (CWOP)

HAMweather, WeatherForYou, PWS Weather


Weather Underground History page Text

Daily Summary for January 17, 2016 Units:  English    Metric   Both
« Previous Day
Next Day »
Daily Weekly Monthly Yearly Custom
  High: Low: Average:
Temperature: 42.5 °F 31.1 °F 35.5 °F
Dew Point: 35.8 °F 24.2 °F 28.7 °F
Humidity: 93 % 64 % 77 %
Wind Speed: 10.0 mph 0.5 mph 3.7 mph
Wind Gust: 13.8 mph - -
Wind:- - SSE
Pressure: 29.89 in 29.66 in -
Precipitation: 0.02 in    
Historical Graphs
 
 
Tabular Data for January 17, 2016
Time Temperature Dew Point Pressure Wind Wind Speed Wind Gust Humidity Rainfall Rate (Hourly)
00:00 42.5 °F 35.5 °F 29.72 in WNW 2.8 mph 4.6 mph 76 % 0.00 in
00:05 42.4 °F 35.4 °F 29.73 in SW 2.5 mph 8.1 mph 76 % 0.00 in
00:10 42.3 °F 35.3 °F 29.73 in West 0.9 mph 3.5 mph 76 % 0.00 in
00:15 42.2 °F 35.2 °F 29.73 in WSW 1.5 mph 3.5 mph 76 % 0.00 in
00:21 42.0 °F 35.0 °F 29.73 in SW 1.9 mph 6.0 mph 76 % 0.00 in
00:26 41.9 °F 35.2 °F 29.73 in SW 1.3 mph 3.5 mph 77 % 0.00 in
00:31 41.8 °F 35.1 °F 29.73 in NW 1.5 mph 3.5 mph 77 % 0.00 in
00:36 41.6 °F 35.2 °F 29.73 in WSW 4.2 mph 5.8 mph 78 % 0.00 in
00:41 41.6 °F 35.2 °F 29.73 in WSW 4.9 mph 6.9 mph 78 % 0.00 in
00:46 41.6 °F 35.2 °F 29.75 in WSW 1.7 mph 4.6 mph 78 % 0.00 in
00:51 41.6 °F 35.2 °F 29.75 in WNW 2.7 mph 4.6 mph 78 % 0.00 in
00:56 41.7 °F 35.3 °F 29.75 in WSW 2.7 mph 5.0 mph 78 % 0.00 in
01:01 41.8 °F 35.4 °F 29.74 in WNW 3.0 mph 6.9 mph 78 % 0.00 in
01:06 41.8 °F 35.1 °F 29.74 in SSW 5.7 mph 6.9 mph 77 % 0.00 in
01:12 41.8 °F 34.8 °F 29.75 in West 3.5 mph 6.9 mph 76 % 0.00 in
01:17 41.9 °F 34.9 °F 29.75 in West 3.1 mph 8.1 mph 76 % 0.00 in
01:22 41.8 °F 35.1 °F 29.75 in West 4.1 mph 7.0 mph 77 % 0.00 in
01:27 41.8 °F 35.1 °F 29.75 in NW 3.7 mph 8.1 mph 77 % 0.00 in
01:32 41.8 °F 35.1 °F 29.75 in WNW 5.8 mph 10.4 mph 77 % 0.00 in
01:42 41.8 °F 35.4 °F 29.75 in West 4.6 mph 6.9 mph 78 % 0.00 in
01:47 41.8 °F 35.8 °F 29.75 in West 3.2 mph 5.0 mph 79 % 0.00 in
01:52 41.8 °F 35.8 °F 29.76 in West 3.4 mph 5.8 mph 79 % 0.00 in
01:57 41.7 °F 35.7 °F 29.77 in SW 2.2 mph 6.9 mph 79 % 0.00 in
02:03 41.7 °F 35.7 °F 29.77 in NNW 2.3 mph 4.6 mph 79 % 0.00 in
02:08 41.6 °F 35.6 °F 29.77 in WSW 1.8 mph 4.6 mph 79 % 0.00 in
02:13 41.6 °F 35.6 °F 29.77 in SW 1.4 mph 9.2 mph 79 % 0.00 in
02:18 41.6 °F 35.6 °F 29.77 in WNW 4.4 mph 6.9 mph 79 % 0.00 in
02:23 41.6 °F 35.6 °F 29.77 in West 2.5 mph 4.0 mph 79 % 0.00 in
02:28 41.5 °F 35.2 °F 29.77 in WNW 2.7 mph 6.9 mph 78 % 0.00 in
02:33 41.5 °F 35.2 °F 29.78 in West 1.6 mph 4.6 mph 78 % 0.00 in
02:38 41.6 °F 35.2 °F 29.78 in WSW 0.8 mph 4.0 mph 78 % 0.00 in
02:43 41.6 °F 34.9 °F 29.79 in West 3.2 mph 4.0 mph 77 % 0.00 in
02:48 41.5 °F 34.8 °F 29.79 in WNW 1.9 mph 5.0 mph 77 % 0.00 in
02:54 41.5 °F 34.5 °F 29.79 in NW 4.9 mph 8.1 mph 76 % 0.00 in
03:04 41.4 °F 33.0 °F 29.79 in WSW 4.6 mph 9.2 mph 72 % 0.00 in
03:09 41.3 °F 33.3 °F 29.79 in WSW 3.4 mph 6.9 mph 73 % 0.00 in
03:14 41.2 °F 33.2 °F 29.79 in WNW 4.1 mph 7.0 mph 73 % 0.00 in
03:19 41.2 °F 33.2 °F 29.79 in WNW 3.7 mph 6.9 mph 73 % 0.00 in
03:24 41.1 °F 33.1 °F 29.79 in WNW 2.6 mph 4.6 mph 73 % 0.00 in
03:29 41.0 °F 32.7 °F 29.79 in WNW 4.1 mph 10.0 mph 72 % 0.00 in
03:34 41.0 °F 32.7 °F 29.80 in West 1.1 mph 6.9 mph 72 % 0.00 in
03:45 40.8 °F 32.8 °F 29.81 in WNW 4.1 mph 11.5 mph 73 % 0.00 in
03:50 40.7 °F 32.7 °F 29.80 in NNW 6.1 mph 6.9 mph 73 % 0.00 in
04:05 40.3 °F 30.9 °F 29.80 in WNW 5.3 mph 10.4 mph 69 % 0.00 in
04:10 40.1 °F 30.7 °F 29.80 in NNW 6.9 mph 13.8 mph 69 % 0.00 in
04:15 39.8 °F 30.1 °F 29.80 in North 6.1 mph 6.9 mph 68 % 0.00 in
04:20 39.6 °F 29.2 °F 29.80 in NW 3.4 mph 9.2 mph 66 % 0.00 in
04:25 39.3 °F 28.9 °F 29.80 in NNW 4.9 mph 8.0 mph 66 % 0.00 in
04:30 39.1 °F 28.7 °F 29.80 in NW 4.9 mph 10.4 mph 66 % 0.00 in
04:36 38.9 °F 28.9 °F 29.81 in WSW 4.2 mph 7.0 mph 67 % 0.00 in
04:46 38.6 °F 28.9 °F 29.81 in WNW 5.4 mph 8.1 mph 68 % 0.00 in
04:51 38.4 °F 28.4 °F 29.81 in WNW 5.0 mph 10.4 mph 67 % 0.00 in
04:56 38.2 °F 28.6 °F 29.81 in North 5.0 mph 8.1 mph 68 % 0.00 in
05:01 38.1 °F 28.1 °F 29.81 in NNW 5.1 mph 9.2 mph 67 % 0.00 in
05:06 38.0 °F 28.4 °F 29.81 in NNW 4.0 mph 8.0 mph 68 % 0.00 in
05:11 37.9 °F 27.9 °F 29.81 in NNW 3.6 mph 8.1 mph 67 % 0.00 in
05:16 37.8 °F 28.2 °F 29.81 in NW 4.3 mph 8.0 mph 68 % 0.00 in
05:21 37.7 °F 27.7 °F 29.81 in NNW 4.7 mph 8.0 mph 67 % 0.00 in
05:27 37.6 °F 27.6 °F 29.81 in WNW 2.2 mph 8.1 mph 67 % 0.00 in
05:32 37.5 °F 27.9 °F 29.81 in NW 3.6 mph 6.9 mph 68 % 0.00 in
05:37 37.4 °F 27.4 °F 29.81 in NW 4.4 mph 8.1 mph 67 % 0.00 in
05:42 37.3 °F 27.3 °F 29.82 in WNW 4.5 mph 8.1 mph 67 % 0.00 in
05:47 37.2 °F 27.2 °F 29.82 in NNW 5.0 mph 8.1 mph 67 % 0.00 in
05:52 37.2 °F 27.6 °F 29.82 in NW 4.5 mph 5.0 mph 68 % 0.00 in
05:57 37.1 °F 27.5 °F 29.82 in NW 3.6 mph 5.8 mph 68 % 0.00 in
06:02 37.1 °F 27.5 °F 29.82 in NNW 2.8 mph 10.4 mph 68 % 0.00 in
06:07 37.0 °F 27.4 °F 29.81 in NNW 3.8 mph 8.1 mph 68 % 0.00 in
06:12 36.9 °F 27.7 °F 29.81 in NNW 4.7 mph 6.9 mph 69 % 0.00 in
06:18 36.8 °F 27.9 °F 29.81 in North 4.6 mph 8.1 mph 70 % 0.00 in
06:23 36.8 °F 27.9 °F 29.81 in NW 3.2 mph 5.8 mph 70 % 0.00 in
06:28 36.7 °F 27.8 °F 29.82 in North 4.2 mph 6.9 mph 70 % 0.00 in
06:33 36.6 °F 27.7 °F 29.82 in NNE 2.1 mph 6.0 mph 70 % 0.00 in
06:43 36.4 °F 28.2 °F 29.82 in North 4.4 mph 8.1 mph 72 % 0.00 in
06:48 36.2 °F 28.0 °F 29.83 in NNE 7.0 mph 11.5 mph 72 % 0.00 in
06:53 36.1 °F 28.3 °F 29.83 in NNE 4.8 mph 7.0 mph 73 % 0.00 in
06:58 36.0 °F 28.5 °F 29.83 in NE 6.9 mph 9.0 mph 74 % 0.00 in
07:03 35.8 °F 28.3 °F 29.82 in North 7.6 mph 11.5 mph 74 % 0.00 in
07:09 35.6 °F 28.1 °F 29.83 in NE 7.5 mph 11.5 mph 74 % 0.00 in
07:14 35.5 °F 28.0 °F 29.83 in North 7.0 mph 11.5 mph 74 % 0.00 in
07:19 35.4 °F 27.9 °F 29.83 in NE 7.1 mph 12.0 mph 74 % 0.00 in
07:24 35.2 °F 27.1 °F 29.83 in NNE 7.3 mph 10.4 mph 72 % 0.00 in
07:29 35.2 °F 27.1 °F 29.83 in NE 6.5 mph 11.0 mph 72 % 0.00 in
07:34 35.1 °F 27.0 °F 29.84 in NNE 6.8 mph 8.1 mph 72 % 0.00 in
07:39 35.2 °F 27.1 °F 29.84 in NE 5.0 mph 8.1 mph 72 % 0.00 in
07:44 35.1 °F 27.0 °F 29.84 in NNE 4.7 mph 8.1 mph 72 % 0.00 in
07:49 35.1 °F 26.6 °F 29.84 in NNE 5.5 mph 10.4 mph 71 % 0.00 in
07:55 35.1 °F 26.3 °F 29.84 in NNE 7.6 mph 11.5 mph 70 % 0.00 in
08:05 35.1 °F 25.9 °F 29.84 in NNE 5.8 mph 12.7 mph 69 % 0.00 in
08:10 35.1 °F 25.6 °F 29.84 in NNE 8.1 mph 12.7 mph 68 % 0.00 in
08:20 35.0 °F 24.8 °F 29.84 in NNE 9.4 mph 13.8 mph 66 % 0.00 in
08:25 35.0 °F 25.1 °F 29.84 in NE 10.0 mph 12.7 mph 67 % 0.00 in
08:30 35.0 °F 25.1 °F 29.85 in ENE 5.9 mph 9.2 mph 67 % 0.00 in
08:35 35.0 °F 25.1 °F 29.85 in NE 6.2 mph 8.1 mph 67 % 0.00 in
08:40 35.1 °F 25.2 °F 29.86 in North 5.8 mph 10.4 mph 67 % 0.00 in
08:46 35.1 °F 24.5 °F 29.85 in NNE 8.4 mph 11.5 mph 65 % 0.00 in
08:51 35.1 °F 24.9 °F 29.85 in NE 4.1 mph 5.8 mph 66 % 0.00 in
08:56 35.1 °F 25.2 °F 29.86 in NNE 5.0 mph 8.1 mph 67 % 0.00 in
09:01 35.2 °F 25.0 °F 29.86 in NE 2.5 mph 10.4 mph 66 % 0.00 in
09:06 35.2 °F 25.0 °F 29.86 in NE 4.1 mph 5.0 mph 66 % 0.00 in
09:11 35.2 °F 24.2 °F 29.86 in NE 7.3 mph 9.2 mph 64 % 0.00 in
09:16 35.1 °F 24.5 °F 29.86 in NNE 6.2 mph 9.2 mph 65 % 0.00 in
09:21 35.1 °F 24.5 °F 29.85 in North 6.5 mph 9.2 mph 65 % 0.00 in
09:26 35.1 °F 24.5 °F 29.86 in NE 3.6 mph 5.8 mph 65 % 0.00 in
09:31 35.2 °F 24.6 °F 29.86 in NE 4.8 mph 6.9 mph 65 % 0.00 in
09:37 35.2 °F 24.6 °F 29.86 in NNE 6.7 mph 10.4 mph 65 % 0.00 in
09:42 35.3 °F 25.1 °F 29.88 in North 4.6 mph 8.1 mph 66 % 0.00 in
09:47 35.3 °F 25.1 °F 29.88 in NNE 3.1 mph 4.6 mph 66 % 0.00 in
09:52 35.4 °F 25.2 °F 29.89 in NNE 6.4 mph 10.4 mph 66 % 0.00 in
09:57 35.4 °F 25.2 °F 29.89 in NNE 5.5 mph 10.0 mph 66 % 0.00 in
10:02 35.4 °F 24.8 °F 29.89 in NNE 4.0 mph 10.4 mph 65 % 0.00 in
10:07 35.5 °F 25.3 °F 29.88 in NE 3.2 mph 8.1 mph 66 % 0.00 in
10:12 35.5 °F 25.3 °F 29.86 in NNE 3.6 mph 8.1 mph 66 % 0.00 in
10:17 35.5 °F 25.6 °F 29.85 in NE 4.6 mph 8.1 mph 67 % 0.00 in
10:22 35.6 °F 25.7 °F 29.85 in ENE 3.8 mph 9.0 mph 67 % 0.00 in
10:28 35.7 °F 26.2 °F 29.85 in NNE 3.6 mph 4.6 mph 68 % 0.00 in
10:33 35.7 °F 25.8 °F 29.85 in NE 4.6 mph 9.2 mph 67 % 0.00 in
10:38 35.7 °F 25.8 °F 29.84 in NNE 5.4 mph 8.1 mph 67 % 0.00 in
10:43 35.6 °F 25.7 °F 29.84 in ENE 6.6 mph 10.4 mph 67 % 0.00 in
10:48 35.5 °F 26.0 °F 29.83 in ENE 8.4 mph 12.7 mph 68 % 0.00 in
10:53 35.3 °F 25.4 °F 29.84 in ENE 4.6 mph 5.0 mph 67 % 0.00 in
10:58 35.2 °F 25.3 °F 29.84 in NNE 6.2 mph 8.1 mph 67 % 0.00 in
11:03 35.3 °F 25.4 °F 29.84 in NE 5.7 mph 8.1 mph 67 % 0.00 in
11:13 35.3 °F 25.4 °F 29.84 in NNE 5.0 mph 6.9 mph 67 % 0.00 in
11:24 35.4 °F 25.9 °F 29.85 in NNE 3.2 mph 5.0 mph 68 % 0.00 in
11:29 35.4 °F 25.5 °F 29.85 in NE 2.5 mph 5.8 mph 67 % 0.00 in
11:34 35.4 °F 25.2 °F 29.85 in ENE 3.2 mph 6.9 mph 66 % 0.00 in
11:39 35.3 °F 25.1 °F 29.84 in ENE 2.7 mph 3.5 mph 66 % 0.00 in
11:44 35.3 °F 25.1 °F 29.83 in NE 2.3 mph 3.5 mph 66 % 0.00 in
11:49 35.4 °F 25.5 °F 29.84 in NE 3.1 mph 4.6 mph 67 % 0.00 in
11:54 35.4 °F 25.5 °F 29.83 in NNE 2.3 mph 4.6 mph 67 % 0.00 in
11:59 35.4 °F 25.5 °F 29.83 in ENE 3.2 mph 6.9 mph 67 % 0.00 in
12:04 35.3 °F 25.1 °F 29.83 in ENE 2.9 mph 6.9 mph 66 % 0.00 in
12:10 35.3 °F 25.4 °F 29.82 in NNE 2.2 mph 5.8 mph 67 % 0.00 in
12:15 35.3 °F 25.4 °F 29.81 in NNE 2.8 mph 5.0 mph 67 % 0.00 in
12:20 35.4 °F 25.9 °F 29.81 in NNE 6.0 mph 9.2 mph 68 % 0.00 in
12:25 35.4 °F 25.5 °F 29.80 in NNE 5.2 mph 6.9 mph 67 % 0.00 in
12:30 35.4 °F 25.5 °F 29.79 in NE 4.0 mph 9.2 mph 67 % 0.00 in
12:35 35.5 °F 26.0 °F 29.79 in NNE 3.1 mph 4.6 mph 68 % 0.00 in
12:40 35.5 °F 25.6 °F 29.79 in NE 3.2 mph 6.9 mph 67 % 0.00 in
12:45 35.5 °F 25.3 °F 29.79 in NE 3.1 mph 6.9 mph 66 % 0.00 in
12:50 35.5 °F 26.0 °F 29.78 in North 4.4 mph 5.8 mph 68 % 0.00 in
12:55 35.5 °F 26.0 °F 29.78 in ENE 2.7 mph 4.6 mph 68 % 0.00 in
13:01 35.5 °F 25.6 °F 29.78 in NNE 3.0 mph 6.9 mph 67 % 0.00 in
13:06 35.5 °F 25.6 °F 29.78 in NNE 2.0 mph 4.6 mph 67 % 0.00 in
13:11 35.6 °F 26.1 °F 29.78 in NE 2.1 mph 3.5 mph 68 % 0.00 in
13:16 35.6 °F 26.1 °F 29.78 in ENE 2.0 mph 5.8 mph 68 % 0.00 in
13:21 35.6 °F 25.7 °F 29.78 in NE 2.9 mph 3.5 mph 67 % 0.00 in
13:26 35.6 °F 26.1 °F 29.77 in NE 2.8 mph 5.8 mph 68 % 0.00 in
13:31 35.6 °F 25.7 °F 29.76 in NNE 4.3 mph 7.0 mph 67 % 0.00 in
13:36 35.6 °F 25.7 °F 29.76 in ENE 5.1 mph 9.2 mph 67 % 0.00 in
13:41 35.5 °F 26.0 °F 29.76 in NE 5.8 mph 8.1 mph 68 % 0.00 in
13:52 35.3 °F 25.4 °F 29.76 in ENE 4.5 mph 6.9 mph 67 % 0.00 in
13:57 35.4 °F 25.9 °F 29.76 in NE 3.0 mph 5.8 mph 68 % 0.00 in
14:02 35.4 °F 25.5 °F 29.76 in NE 3.9 mph 6.9 mph 67 % 0.00 in
14:07 35.4 °F 25.5 °F 29.76 in NNE 5.6 mph 8.1 mph 67 % 0.00 in
14:12 35.4 °F 26.2 °F 29.76 in NE 2.0 mph 3.5 mph 69 % 0.00 in
14:17 35.4 °F 25.9 °F 29.76 in NNE 4.2 mph 5.8 mph 68 % 0.00 in
14:22 35.4 °F 25.9 °F 29.76 in NE 3.6 mph 6.0 mph 68 % 0.00 in
14:27 35.4 °F 25.9 °F 29.75 in ENE 4.5 mph 6.9 mph 68 % 0.00 in
14:32 35.4 °F 25.9 °F 29.75 in NE 4.2 mph 6.9 mph 68 % 0.00 in
14:37 35.4 °F 25.9 °F 29.75 in NNE 3.8 mph 5.8 mph 68 % 0.00 in
14:43 35.4 °F 25.9 °F 29.74 in NNE 2.3 mph 5.8 mph 68 % 0.00 in
14:48 35.4 °F 26.2 °F 29.74 in East 2.8 mph 5.0 mph 69 % 0.00 in
14:57 35.4 °F 26.2 °F 29.74 in North 3.2 mph 6.9 mph 69 % 0.00 in
15:02 35.3 °F 26.5 °F 29.73 in East 3.2 mph 4.6 mph 70 % 0.00 in
15:07 35.1 °F 26.6 °F 29.74 in NE 3.8 mph 8.1 mph 71 % 0.00 in
15:12 35.0 °F 26.9 °F 29.73 in ENE 4.3 mph 8.0 mph 72 % 0.00 in
15:17 34.8 °F 27.4 °F 29.72 in NNE 1.2 mph 3.5 mph 74 % 0.00 in
15:22 34.7 °F 27.6 °F 29.72 in NNE 3.8 mph 11.5 mph 75 % 0.00 in
15:27 34.5 °F 27.7 °F 29.72 in NNE 4.8 mph 8.1 mph 76 % 0.00 in
15:33 34.4 °F 27.9 °F 29.72 in East 2.2 mph 5.8 mph 77 % 0.00 in
15:38 34.2 °F 27.7 °F 29.72 in North 4.6 mph 7.0 mph 77 % 0.00 in
15:43 34.2 °F 28.1 °F 29.71 in NNE 2.8 mph 5.0 mph 78 % 0.00 in
15:48 34.1 °F 28.0 °F 29.70 in ENE 5.2 mph 6.9 mph 78 % 0.00 in
15:53 33.9 °F 28.1 °F 29.70 in North 4.7 mph 5.8 mph 79 % 0.00 in
15:58 33.9 °F 28.1 °F 29.70 in NNE 4.5 mph 6.9 mph 79 % 0.00 in
16:08 33.7 °F 28.2 °F 29.70 in NNE 6.6 mph 10.4 mph 80 % 0.00 in
16:13 33.5 °F 28.3 °F 29.70 in NNE 5.7 mph 6.9 mph 81 % 0.00 in
16:24 33.2 °F 28.6 °F 29.70 in NE 4.1 mph 9.2 mph 83 % 0.00 in
16:29 33.0 °F 28.7 °F 29.70 in NE 4.8 mph 5.8 mph 84 % 0.00 in
16:34 32.9 °F 28.9 °F 29.70 in North 4.3 mph 6.9 mph 85 % 0.00 in
16:39 32.7 °F 29.0 °F 29.70 in NNE 4.3 mph 6.9 mph 86 % 0.00 in
16:44 32.6 °F 29.2 °F 29.71 in NNE 4.7 mph 6.9 mph 87 % 0.00 in
16:49 32.5 °F 29.1 °F 29.71 in NNE 4.9 mph 6.9 mph 87 % 0.00 in
16:54 32.4 °F 29.0 °F 29.71 in NNE 5.4 mph 6.9 mph 87 % 0.00 in
16:59 32.2 °F 29.0 °F 29.71 in NNE 3.1 mph 5.8 mph 88 % 0.00 in
17:04 32.1 °F 28.9 °F 29.72 in NNE 2.5 mph 4.6 mph 88 % 0.00 in
17:09 32.1 °F 29.2 °F 29.72 in NNE 2.3 mph 4.6 mph 89 % 0.00 in
17:15 32.0 °F 29.1 °F 29.72 in North 0.9 mph 3.5 mph 89 % 0.00 in
17:20 32.0 °F 29.4 °F 29.72 in NNE 1.1 mph 3.5 mph 90 % 0.00 in
17:25 32.0 °F 29.4 °F 29.72 in North 1.2 mph 2.0 mph 90 % 0.00 in
17:30 31.9 °F 29.3 °F 29.72 in North 2.3 mph 4.6 mph 90 % 0.00 in
17:35 31.9 °F 29.6 °F 29.72 in NNE 3.9 mph 6.0 mph 91 % 0.00 in
17:40 31.8 °F 29.5 °F 29.72 in NNE 3.0 mph 5.8 mph 91 % 0.01 in
17:45 31.7 °F 29.4 °F 29.72 in North 2.4 mph 4.0 mph 91 % 0.01 in
17:50 31.6 °F 29.3 °F 29.72 in NNE 1.6 mph 3.5 mph 91 % 0.01 in
18:00 31.5 °F 29.2 °F 29.72 in NNE 2.9 mph 6.0 mph 91 % 0.01 in
18:06 31.5 °F 29.2 °F 29.71 in North 3.3 mph 3.5 mph 91 % 0.01 in
18:11 31.4 °F 29.3 °F 29.71 in North 2.5 mph 4.0 mph 92 % 0.01 in
18:16 31.4 °F 29.3 °F 29.71 in North 1.6 mph 3.5 mph 92 % 0.01 in
18:21 31.3 °F 29.2 °F 29.71 in NNE 2.3 mph 5.0 mph 92 % 0.02 in
18:26 31.3 °F 29.2 °F 29.70 in NE 2.5 mph 4.6 mph 92 % 0.02 in
18:31 31.2 °F 29.1 °F 29.70 in North 2.0 mph 4.6 mph 92 % 0.02 in
18:36 31.3 °F 29.2 °F 29.70 in North 1.9 mph 3.5 mph 92 % 0.02 in
18:41 31.2 °F 29.1 °F 29.69 in NE 2.6 mph 3.5 mph 92 % 0.01 in
18:46 31.3 °F 29.2 °F 29.69 in North 0.5 mph 2.3 mph 92 % 0.01 in
18:51 31.3 °F 29.5 °F 29.69 in NNE 3.7 mph 4.6 mph 93 % 0.01 in
18:57 31.4 °F 29.6 °F 29.69 in North 2.2 mph 3.5 mph 93 % 0.01 in
19:02 31.4 °F 29.6 °F 29.69 in North 3.8 mph 7.0 mph 93 % 0.01 in
19:07 31.4 °F 29.6 °F 29.69 in North 1.6 mph 3.5 mph 93 % 0.01 in
19:12 31.4 °F 29.6 °F 29.69 in NNW 4.7 mph 5.8 mph 93 % 0.01 in
19:17 31.4 °F 29.6 °F 29.69 in North 2.7 mph 4.0 mph 93 % 0.01 in
19:27 31.4 °F 29.6 °F 29.69 in NNW 1.3 mph 5.0 mph 93 % 0.00 in
19:32 31.4 °F 29.6 °F 29.69 in NNW 2.6 mph 3.5 mph 93 % 0.00 in
19:42 31.5 °F 29.7 °F 29.68 in NW 1.1 mph 3.5 mph 93 % 0.00 in
19:48 31.5 °F 29.7 °F 29.69 in NW 1.5 mph 3.5 mph 93 % 0.00 in
19:53 31.6 °F 29.8 °F 29.68 in NW 1.4 mph 4.6 mph 93 % 0.00 in
19:58 31.6 °F 29.8 °F 29.69 in NW 2.8 mph 6.9 mph 93 % 0.00 in
20:03 31.6 °F 29.8 °F 29.68 in North 1.4 mph 3.5 mph 93 % 0.00 in
20:08 31.7 °F 29.9 °F 29.68 in North 2.6 mph 6.9 mph 93 % 0.00 in
20:13 31.7 °F 29.9 °F 29.68 in NNW 2.1 mph 6.9 mph 93 % 0.00 in
20:18 31.7 °F 29.9 °F 29.68 in NW 2.6 mph 3.5 mph 93 % 0.00 in
20:23 31.7 °F 29.9 °F 29.68 in North 2.3 mph 5.8 mph 93 % 0.00 in
20:28 31.6 °F 29.8 °F 29.67 in NNW 3.4 mph 5.8 mph 93 % 0.00 in
20:33 31.6 °F 29.8 °F 29.67 in NNW 0.6 mph 5.0 mph 93 % 0.00 in
20:49 31.6 °F 29.8 °F 29.68 in North 2.6 mph 8.0 mph 93 % 0.00 in
20:54 31.6 °F 29.8 °F 29.67 in NW 3.7 mph 6.9 mph 93 % 0.00 in
21:04 31.6 °F 29.5 °F 29.68 in NW 1.9 mph 3.5 mph 92 % 0.00 in
21:09 31.7 °F 29.6 °F 29.68 in North 3.4 mph 5.0 mph 92 % 0.00 in
21:14 31.7 °F 29.9 °F 29.68 in NNE 3.5 mph 8.1 mph 93 % 0.00 in
21:30 31.7 °F 29.6 °F 29.67 in NNW 1.8 mph 3.5 mph 92 % 0.00 in
21:35 31.7 °F 29.6 °F 29.68 in WNW 3.4 mph 7.0 mph 92 % 0.00 in
21:40 31.7 °F 29.6 °F 29.68 in NW 4.0 mph 5.8 mph 92 % 0.00 in
21:45 31.7 °F 29.4 °F 29.67 in WNW 1.4 mph 4.0 mph 91 % 0.00 in
21:50 31.7 °F 29.4 °F 29.67 in WSW 3.8 mph 5.8 mph 91 % 0.00 in
21:55 31.7 °F 29.4 °F 29.67 in NW 1.7 mph 3.5 mph 91 % 0.00 in
22:00 31.7 °F 29.4 °F 29.67 in NW 1.2 mph 3.5 mph 91 % 0.00 in
22:10 31.6 °F 29.0 °F 29.66 in NW 1.5 mph 4.0 mph 90 % 0.00 in
22:15 31.6 °F 29.0 °F 29.66 in North 3.6 mph 5.8 mph 90 % 0.00 in
22:21 31.5 °F 28.9 °F 29.66 in NW 2.5 mph 3.5 mph 90 % 0.00 in
22:26 31.5 °F 28.9 °F 29.66 in NW 3.2 mph 4.6 mph 90 % 0.00 in
22:31 31.4 °F 28.8 °F 29.66 in NW 2.2 mph 4.0 mph 90 % 0.00 in
22:36 31.4 °F 28.8 °F 29.66 in West 4.6 mph 8.1 mph 90 % 0.00 in
22:41 31.3 °F 28.7 °F 29.66 in WNW 1.4 mph 3.5 mph 90 % 0.00 in
22:46 31.2 °F 28.3 °F 29.66 in WNW 2.5 mph 5.8 mph 89 % 0.00 in
22:51 31.2 °F 28.6 °F 29.66 in NW 2.8 mph 3.5 mph 90 % 0.00 in
22:56 31.1 °F 28.5 °F 29.66 in WNW 2.9 mph 3.5 mph 90 % 0.00 in
23:01 31.1 °F 28.5 °F 29.66 in WNW 2.9 mph 6.0 mph 90 % 0.00 in
23:12 31.1 °F 28.5 °F 29.67 in WSW 1.7 mph 3.5 mph 90 % 0.00 in
23:22 31.1 °F 28.5 °F 29.67 in WSW 2.1 mph 3.5 mph 90 % 0.00 in
23:27 31.1 °F 28.5 °F 29.67 in WNW 3.2 mph 6.9 mph 90 % 0.00 in
23:32 31.1 °F 28.5 °F 29.67 in West 3.8 mph 5.8 mph 90 % 0.00 in
23:37 31.1 °F 28.5 °F 29.67 in West 1.4 mph 3.0 mph 90 % 0.00 in
23:42 31.1 °F 28.5 °F 29.67 in WSW 2.6 mph 6.0 mph 90 % 0.00 in
23:47 31.2 °F 28.6 °F 29.67 in WSW 2.1 mph 5.8 mph 90 % 0.00 in
23:52 31.2 °F 28.6 °F 29.66 in WSW 2.9 mph 7.0 mph 90 % 0.00 in
23:57 31.2 °F 28.6 °F 29.66 in WSW 1.8 mph 7.0 mph 90 % 0.00 in
Crab Meadow Weather
Compliments of Weather Underground - 2.75 mb

Script developed by  Jim McMurry - jmcmurry@mwt.net Adapted for the template by  Wim van der Kuil - Leuven-Template.eu

Weather Terms: Severe Local Storms - These are short-fused, small scale hazardous weather or hydrologic events produced by thunderstorms, including large hail, damaging winds, tornadoes, and flash floods.